This is the latest recevied weather packets stored in our database for station/object OE-11204. If no packets are shown the sender has not sent any weather packets the latest 10 day(s).
| Time | Temp. | Humidity | Pressure | Rain* | Wind** | Luminosity | Snow |
|---|---|---|---|---|---|---|---|
| 1787623514 | 15° C | 87% | 1015.2 hPa | 0 mm | - | 0 W/m² | - |
| 1787622915 | 15° C | 88% | 1015.2 hPa | 0 mm | - | 0 W/m² | - |
| 1787622088 | 15.56° C | 86% | 1015.2 hPa | 0 mm | - | 0 W/m² | - |
| 1787621715 | 15.56° C | 87% | 1015.5 hPa | 0 mm | - | 0 W/m² | - |
| 1787621115 | 15.56° C | 88% | 1015.8 hPa | 0 mm | - | 0 W/m² | - |
| 1787620287 | 15.56° C | 87% | 1015.7 hPa | 0 mm | - | 0 W/m² | - |
| 1787619915 | 16.11° C | 84% | 1015.7 hPa | 0 mm | - | 0 W/m² | - |
| 1787619314 | 16.67° C | 83% | 1015.9 hPa | 0 mm | - | 0 W/m² | - |
| 1787618487 | 16.67° C | 82% | 1015.9 hPa | 0 mm | - | 0 W/m² | - |
| 1787618115 | 16.67° C | 83% | 1016.2 hPa | 0 mm | - | 0 W/m² | - |
| 1787617515 | 16.67° C | 83% | 1015.8 hPa | 0 mm | - | 0 W/m² | - |
| 1787616688 | 16.67° C | 82% | 1015.8 hPa | 0 mm | - | 0 W/m² | - |
| 1787616315 | 17.22° C | 81% | 1016 hPa | 0 mm | - | 0 W/m² | - |
| 1787615715 | 17.22° C | 80% | 1016.1 hPa | 0 mm | - | 0 W/m² | - |
| 1787614887 | 17.78° C | 78% | 1015.9 hPa | 0 mm | - | 0 W/m² | - |
| 1787614515 | 17.78° C | 77% | 1016.4 hPa | 0 mm | - | 0 W/m² | - |
| 1787613915 | 17.78° C | 81% | 1016.5 hPa | 0 mm | - | 0 W/m² | - |
| 1787613315 | 17.78° C | 78% | 1016.3 hPa | 0 mm | - | 0 W/m² | - |
| 1787612714 | 18.33° C | 75% | 1016.4 hPa | 0 mm | - | 0 W/m² | - |
| 1787612115 | 18.33° C | 80% | 1016.6 hPa | 0 mm | - | 0 W/m² | - |
| 1787611288 | 18.33° C | 82% | 1016.8 hPa | 0 mm | - | 0 W/m² | - |
| 1787610914 | 18.33° C | 80% | 1017 hPa | 0 mm | - | 0 W/m² | - |
| 1787610315 | 18.33° C | 79% | 1017.1 hPa | 0 mm | - | 0 W/m² | - |
| 1787609488 | 18.33° C | 81% | 1017.5 hPa | 0 mm | - | 0 W/m² | - |
| 1787609115 | 18.33° C | 81% | 1017.1 hPa | 0 mm | - | 0 W/m² | - |
* Rain latest hour (hover to see other rain measurements)
** Current wind speed in m/s (hover to see current wind gust speed)